Date,TemperatureHighF,TemperatureAvgF,TemperatureLowF,DewpointHighF,DewpointAvgF,DewpointLowF,HumidityHigh,HumidityAvg,HumidityLow,PressureMaxIn,PressureMinIn,WindSpeedMaxMPH,WindSpeedAvgMPH,GustSpeedMaxMPH,PrecipitationSumIn
2014-2-1,42.7,34.1,22.2,30.0,23.7,19.0,88,67,48,30.28,29.96,16,5,20,0.00
2014-2-2,43.5,37.7,31.8,37.0,33.3,25.0,93,84,70,30.08,29.82,16,4,23,0.09
2014-2-3,31.5,26.0,13.9,26.0,21.7,12.0,93,84,71,30.28,30.08,11,3,14,0.00
2014-2-4,28.6,20.6,6.9,20.0,15.0,4.0,92,79,61,30.45,30.23,5,2,9,0.11
2014-2-5,26.0,23.4,18.9,24.0,21.2,15.0,94,91,74,30.25,29.62,12,3,19,0.00
2014-2-6,22.7,14.2,1.1,15.0,8.0,-2.0,88,77,53,30.28,29.96,10,4,14,0.07
2014-2-7,31.3,13.2,-5.3,15.0,4.5,-9.0,89,71,43,30.25,30.14,7,2,13,0.08
2014-2-8,24.6,13.8,-2.7,8.0,2.2,-7.0,84,62,39,30.29,30.13,9,2,13,0.01
2014-2-9,26.9,18.7,4.5,19.0,10.7,1.0,90,72,53,30.15,29.91,7,3,12,0.01
2014-2-10,25.2,16.1,3.2,17.0,7.7,-1.0,94,71,46,30.22,29.92,15,4,21,0.00
2014-2-11,21.7,11.5,-3.6,6.0,1.9,-7.0,90,67,47,30.46,30.22,10,4,16,0.00
2014-2-12,21.7,10.4,-5.3,10.0,0.5,-9.0,88,66,44,30.55,30.31,11,2,11,0.00
2014-2-13,25.6,21.3,17.1,24.0,19.0,10.0,95,90,73,30.30,29.09,11,5,17,0.00
2014-2-14,36.1,28.8,23.8,26.0,23.6,21.0,95,82,65,29.72,29.00,18,6,23,0.08
2014-2-15,29.6,25.3,16.4,28.0,21.9,13.0,94,87,72,29.76,29.64,18,4,25,0.01
2014-2-16,24.7,20.9,15.4,17.0,11.0,7.0,76,66,52,30.05,29.68,21,6,21,0.00
2014-2-17,25.1,14.0,3.5,6.0,-1.5,-5.0,75,52,31,30.35,30.07,11,5,18,0.00
2014-2-18,29.2,20.5,11.9,26.0,13.3,-1.0,94,76,36,30.28,29.91,15,4,17,0.00
2014-2-19,36.3,28.5,10.3,35.0,25.8,8.0,97,90,69,30.05,29.65,13,3,14,0.01
2014-2-20,44.7,35.9,20.4,33.0,27.6,19.0,95,75,44,30.17,29.96,11,4,16,0.24
2014-2-21,39.2,35.4,29.2,39.0,34.5,29.0,98,96,88,29.98,29.61,12,2,15,0.35
2014-2-22,51.1,40.3,29.0,34.0,24.9,20.0,98,59,30,29.92,29.80,19,7,30,0.01
2014-2-23,46.5,38.0,29.0,30.0,26.0,21.0,86,64,45,29.94,29.75,11,3,13,0.00
2014-2-24,36.4,26.3,20.1,21.0,11.9,5.0,73,55,39,29.98,29.76,20,7,21,0.00
2014-2-25,25.7,19.0,7.6,14.0,8.4,3.0,83,64,50,30.00,29.87,10,4,15,0.00
2014-2-26,25.1,15.5,3.4,10.0,1.4,-7.0,87,56,30,29.90,29.79,21,5,22,0.00
2014-2-27,25.1,13.9,2.3,15.0,0.6,-9.0,86,56,42,29.98,29.56,19,7,29,0.00
2014-2-28,18.3,9.2,1.1,-3.0,-5.4,-9.0,74,54,32,30.39,29.99,11,3,17,0.00